TimeMST,TemperatureF,Dew PointF,Humidity,Sea Level PressureIn,VisibilityMPH,Wind Direction,Wind SpeedMPH,Gust SpeedMPH,PrecipitationIn,Events,Conditions,WindDirDegrees,DateUTC
12:53 AM,39.9,33.1,77,30.32,10.0,SW,6.9,-,N/A,,Overcast,230,2013-12-01 07:53:00
1:53 AM,39.0,33.1,79,30.32,10.0,WSW,5.8,-,N/A,,Overcast,240,2013-12-01 08:53:00
2:53 AM,37.9,33.1,83,30.32,10.0,SSW,4.6,-,N/A,,Overcast,210,2013-12-01 09:53:00
3:53 AM,37.9,33.1,83,30.30,10.0,South,6.9,-,N/A,,Overcast,190,2013-12-01 10:53:00
4:53 AM,37.0,33.1,86,30.28,10.0,SSE,5.8,-,N/A,,Overcast,160,2013-12-01 11:53:00
5:53 AM,37.9,33.1,83,30.28,10.0,SSE,5.8,-,N/A,,Overcast,160,2013-12-01 12:53:00
6:53 AM,39.0,34.0,82,30.28,10.0,SSE,6.9,-,N/A,,Overcast,160,2013-12-01 13:53:00
7:53 AM,39.0,34.0,82,30.27,10.0,SSE,6.9,-,0.00,,Overcast,160,2013-12-01 14:53:00
8:53 AM,39.9,34.0,79,30.27,10.0,SSW,5.8,-,N/A,,Overcast,200,2013-12-01 15:53:00
9:53 AM,43.0,33.1,68,30.25,10.0,SW,9.2,-,N/A,,Overcast,220,2013-12-01 16:53:00
10:53 AM,46.9,34.0,61,30.23,10.0,SW,9.2,-,N/A,,Overcast,230,2013-12-01 17:53:00
11:53 AM,46.0,35.1,66,30.20,10.0,West,6.9,-,0.00,,Overcast,270,2013-12-01 18:53:00
12:53 PM,46.9,34.0,61,30.16,10.0,WSW,8.1,-,0.00,,Overcast,250,2013-12-01 19:53:00
1:53 PM,48.9,34.0,56,30.14,10.0,WSW,12.7,-,N/A,,Overcast,240,2013-12-01 20:53:00
2:53 PM,53.1,34.0,48,30.09,10.0,WSW,24.2,34.5,N/A,,Clear,240,2013-12-01 21:53:00
3:53 PM,51.1,34.0,52,30.09,10.0,SW,19.6,-,N/A,,Clear,230,2013-12-01 22:53:00
4:53 PM,50.0,34.0,54,30.10,10.0,SW,15.0,-,N/A,,Scattered Clouds,230,2013-12-01 23:53:00
5:53 PM,48.0,34.0,58,30.09,10.0,SW,17.3,-,N/A,,Clear,230,2013-12-02 00:53:00
6:53 PM,48.9,34.0,56,30.07,10.0,SW,15.0,-,N/A,,Partly Cloudy,230,2013-12-02 01:53:00
7:53 PM,48.0,34.0,58,30.05,10.0,SW,12.7,-,N/A,,Clear,220,2013-12-02 02:53:00
8:53 PM,48.9,33.1,54,30.02,10.0,SW,17.3,-,N/A,,Clear,220,2013-12-02 03:53:00
9:53 PM,48.9,32.0,52,30.01,10.0,WSW,15.0,-,N/A,,Clear,240,2013-12-02 04:53:00
10:53 PM,48.9,32.0,52,29.99,10.0,WSW,11.5,-,N/A,,Clear,240,2013-12-02 05:53:00
11:53 PM,48.0,30.9,52,30.00,10.0,West,10.4,-,N/A,,Partly Cloudy,260,2013-12-02 06:53:00